Starlink 35362

operational
NORAD ID: 65888 Int'l Des: 2025-224 Owner: SPXS Country: US Constellation: starlink
LEOCIRCULAR

关于 Starlink 35362

正在加载描述...

实时位置

正在加载3D地球...

即将过境

高度历史

Altitude vs Time

uPlot chart will show altitude changes over time

两行轨道根数

1 65888U 25224G 26062.16908470 .00016046 00000-0 55268-3 0 9997
2 65888 53.1600 41.8064 0001427 104.7050 255.4109 15.30201429 23824
Epoch: Mar 3, 2026 • Age: 22 hours

当前状态

高度 488.6 km
速度 7.62 km/s
星下点 -39.28°S, 119.47°E
发射日期 Oct 7, 2025
运行时间 0.4 years
类型 internet

技术详情

分类 Payload
质量 575.00 kg
干质量 530.00 kg
总质量 575.00 kg
长度 0.30 m
直径 4.10 m
跨度 29.00 m
形状 Box + pan
制造商 SPXS
平台类型 Starlink V2MO
阶段状态 In Orbit
所有者/国家 SPXS/US

大型星座

Loading constellations...